Year,Month,Day,Hour,Minute,Value (Times are PST for temperature in C)
2016,07,21,07,00,12.20
2016,07,21,07,01,12.20
2016,07,21,07,02,12.20
2016,07,21,07,03,12.20
2016,07,21,07,04,12.20
2016,07,21,07,05,12.20
2016,07,21,07,06,12.30
2016,07,21,07,07,12.30
2016,07,21,07,08,12.30
2016,07,21,07,09,12.30
2016,07,21,07,10,12.30
2016,07,21,07,11,12.30
2016,07,21,07,12,12.30
2016,07,21,07,13,12.30
2016,07,21,07,14,12.30
2016,07,21,07,15,12.30
2016,07,21,07,16,12.30
2016,07,21,07,17,12.30
2016,07,21,08,08,16.20
2016,07,21,08,09,16.20
2016,07,21,08,10,16.20
2016,07,21,08,11,16.30
2016,07,21,08,12,16.30
2016,07,21,08,13,16.40
2016,07,21,08,14,16.40
2016,07,21,08,15,16.50
2016,07,21,08,16,16.50
2016,07,21,08,17,16.60
2016,07,21,08,18,16.60
2016,07,21,08,19,16.60
2016,07,21,08,20,16.60
2016,07,21,08,21,16.70
2016,07,21,08,22,16.70
2016,07,21,08,23,16.80
2016,07,21,08,24,16.80
2016,07,21,08,25,16.80
2016,07,21,08,26,16.90
2016,07,21,08,27,17.00
2016,07,21,08,28,17.10
2016,07,21,08,29,17.10
2016,07,21,08,30,17.20
2016,07,21,08,31,17.30
2016,07,21,08,32,17.30
2016,07,21,08,33,17.40
2016,07,21,08,34,17.40
2016,07,21,08,35,17.40
2016,07,21,08,36,17.50
2016,07,21,08,37,17.50
2016,07,21,08,38,17.60
2016,07,21,08,39,17.60
2016,07,21,08,40,17.70
2016,07,21,08,41,17.70
2016,07,21,08,42,17.70
2016,07,21,08,43,17.80
2016,07,21,08,44,17.80
2016,07,21,08,45,17.80
2016,07,21,08,46,17.80
2016,07,21,08,47,17.80
2016,07,21,08,48,17.90
2016,07,21,08,49,17.90
2016,07,21,08,50,18.00
2016,07,21,08,51,18.00
2016,07,21,08,52,18.00
2016,07,21,08,53,18.00
2016,07,21,08,54,18.10
2016,07,21,08,55,18.10
2016,07,21,08,56,18.10
2016,07,21,08,57,18.20
2016,07,21,08,58,18.20
2016,07,21,08,59,18.30
2016,07,21,09,00,18.40
2016,07,21,09,01,18.40
2016,07,21,09,02,18.50
2016,07,21,09,03,18.60
2016,07,21,09,04,18.60
2016,07,21,09,05,18.70
2016,07,21,09,06,18.70
2016,07,21,09,07,18.80
2016,07,21,09,08,18.80
2016,07,21,09,09,18.90
2016,07,21,09,10,18.90
2016,07,21,09,11,19.00
2016,07,21,09,12,19.10
2016,07,21,09,13,19.10
2016,07,21,09,14,19.10
2016,07,21,09,15,19.20
2016,07,21,09,16,19.30
2016,07,21,09,17,19.30
2016,07,21,09,18,19.40
2016,07,21,09,19,19.40
2016,07,21,09,20,19.50
2016,07,21,09,21,19.50
2016,07,21,09,22,19.60
2016,07,21,09,23,19.60
2016,07,21,09,24,19.70
2016,07,21,09,25,19.70
2016,07,21,09,26,19.70
2016,07,21,09,27,19.70
2016,07,21,09,28,19.80
2016,07,21,09,29,19.80
2016,07,21,09,30,19.80
2016,07,21,09,31,19.90
2016,07,21,09,32,19.90
2016,07,21,09,33,19.90
2016,07,21,09,34,19.90
2016,07,21,09,35,19.90
2016,07,21,09,36,19.90
2016,07,21,09,37,19.90
2016,07,21,09,38,19.90
2016,07,21,09,39,19.90
2016,07,21,09,40,20.00
2016,07,21,09,41,20.10
2016,07,21,09,42,20.10
2016,07,21,09,43,20.10
2016,07,21,09,44,20.10
2016,07,21,09,45,20.10
2016,07,21,09,46,20.10
2016,07,21,09,47,20.10
2016,07,21,09,48,20.00
2016,07,21,09,49,20.00
2016,07,21,09,50,20.00
2016,07,21,09,51,19.90
2016,07,21,09,52,19.90
2016,07,21,09,53,19.80
2016,07,21,09,54,19.70
2016,07,21,09,55,19.70
2016,07,21,09,56,19.60
2016,07,21,09,57,19.60
2016,07,21,09,58,19.50
2016,07,21,09,59,19.40
2016,07,21,10,00,19.40
2016,07,21,10,01,19.30
2016,07,21,10,02,19.20
2016,07,21,10,03,19.10
2016,07,21,10,04,19.00
2016,07,21,10,05,19.00
2016,07,21,10,06,18.90
2016,07,21,10,07,18.80
2016,07,21,10,08,18.70
2016,07,21,10,09,18.60
2016,07,21,10,10,18.60
2016,07,21,10,11,18.60
2016,07,21,10,12,18.60
2016,07,21,10,13,18.60
2016,07,21,10,14,18.60
2016,07,21,10,15,18.60
2016,07,21,10,16,18.60
2016,07,21,10,17,18.70
2016,07,21,10,18,18.70
2016,07,21,10,19,18.80
2016,07,21,10,20,18.80
2016,07,21,10,21,18.90
2016,07,21,10,22,19.00
2016,07,21,10,23,19.00
2016,07,21,10,24,19.10
2016,07,21,10,25,19.20
2016,07,21,10,26,19.30
2016,07,21,10,27,19.40
2016,07,21,10,28,19.50
2016,07,21,10,29,19.60
2016,07,21,10,30,19.70
2016,07,21,10,31,19.80
2016,07,21,10,32,19.80
2016,07,21,10,33,19.90
2016,07,21,10,34,19.90
2016,07,21,10,35,20.00
2016,07,21,10,36,20.10
2016,07,21,10,37,20.20
2016,07,21,10,38,20.20
2016,07,21,10,39,20.30
2016,07,21,10,40,20.30
2016,07,21,10,41,20.30
2016,07,21,10,42,20.30
2016,07,21,10,43,20.30
2016,07,21,10,44,20.30
2016,07,21,10,45,20.30
2016,07,21,10,46,20.40
2016,07,21,10,47,20.50
2016,07,21,10,48,20.50
2016,07,21,10,49,20.60
2016,07,21,10,50,20.60
2016,07,21,10,51,20.60
2016,07,21,10,52,20.50
2016,07,21,10,53,20.40
2016,07,21,10,54,20.40
2016,07,21,10,55,20.30
2016,07,21,10,56,20.20
2016,07,21,10,57,20.20
2016,07,21,10,58,20.20
2016,07,21,10,59,20.10
2016,07,21,11,00,20.10
2016,07,21,11,01,20.10
2016,07,21,11,02,20.10
2016,07,21,11,03,20.10
2016,07,21,11,04,20.10
2016,07,21,11,05,20.10
2016,07,21,11,06,20.00
2016,07,21,11,07,19.90
2016,07,21,11,08,19.90
2016,07,21,11,09,19.90
2016,07,21,11,10,20.00
2016,07,21,11,11,20.10
2016,07,21,11,12,20.10
2016,07,21,11,13,20.10
2016,07,21,11,14,20.10
2016,07,21,11,15,20.20
2016,07,21,11,16,20.20
2016,07,21,11,17,20.20
2016,07,21,11,18,20.20
2016,07,21,11,19,20.20
2016,07,21,11,20,20.10
2016,07,21,11,21,20.10
2016,07,21,11,22,20.00
2016,07,21,11,23,20.00
2016,07,21,11,24,20.00
2016,07,21,11,25,20.00
2016,07,21,11,26,20.10
2016,07,21,11,27,20.10
2016,07,21,11,28,20.20
2016,07,21,11,29,20.30
2016,07,21,11,30,20.40
2016,07,21,11,31,20.40
2016,07,21,11,32,20.40
2016,07,21,11,33,20.50
2016,07,21,11,34,20.50
2016,07,21,11,35,20.60
2016,07,21,11,36,20.60
2016,07,21,11,37,20.70
2016,07,21,11,38,20.80
2016,07,21,11,39,20.90
2016,07,21,11,40,20.90
2016,07,21,11,41,21.00
2016,07,21,11,42,21.00
2016,07,21,11,43,21.10
2016,07,21,11,44,21.10
2016,07,21,11,45,21.00
2016,07,21,11,46,20.90
2016,07,21,11,47,20.80
2016,07,21,11,48,20.70
2016,07,21,11,49,20.60
2016,07,21,11,50,20.60
2016,07,21,11,51,20.60
2016,07,21,11,52,20.70
2016,07,21,11,53,20.80
2016,07,21,11,54,20.80
2016,07,21,11,55,20.80
2016,07,21,11,56,20.80
2016,07,21,11,57,20.80
2016,07,21,11,58,20.70
2016,07,21,11,59,20.70
2016,07,21,12,00,20.80
2016,07,21,12,01,20.80
2016,07,21,12,02,20.90
2016,07,21,12,03,21.00
2016,07,21,12,04,21.10
2016,07,21,12,05,21.10
2016,07,21,12,06,21.20
2016,07,21,12,07,21.30
2016,07,21,12,08,21.40
2016,07,21,12,09,21.40
2016,07,21,12,10,21.40
2016,07,21,12,11,21.30
2016,07,21,12,12,21.00
2016,07,21,12,13,20.80
2016,07,21,12,14,20.60
2016,07,21,12,15,20.50
2016,07,21,12,16,20.50
2016,07,21,12,17,20.60
2016,07,21,12,18,20.60
2016,07,21,12,19,20.70
2016,07,21,12,20,20.70
2016,07,21,12,21,20.70
2016,07,21,12,22,20.70
2016,07,21,12,23,20.60
2016,07,21,12,24,20.60
2016,07,21,12,25,20.40
2016,07,21,12,26,20.30
2016,07,21,12,27,20.20
2016,07,21,12,28,20.00
2016,07,21,12,29,19.80
2016,07,21,12,30,19.70
2016,07,21,12,31,19.60
2016,07,21,12,32,19.60
2016,07,21,12,33,19.60
2016,07,21,12,34,19.70
2016,07,21,12,35,19.70
2016,07,21,12,36,19.80
2016,07,21,12,37,19.90
2016,07,21,12,38,19.90
2016,07,21,12,39,20.00
2016,07,21,12,40,20.10
2016,07,21,12,41,20.10
2016,07,21,12,42,20.00
2016,07,21,12,43,20.00
2016,07,21,12,44,19.90
2016,07,21,12,45,19.90
2016,07,21,12,46,19.80
2016,07,21,12,47,19.80
2016,07,21,12,48,19.90
2016,07,21,12,49,19.90
2016,07,21,12,50,19.90
2016,07,21,12,51,19.90
2016,07,21,12,52,20.00
2016,07,21,12,53,20.10
2016,07,21,12,54,20.10
2016,07,21,12,55,20.20
2016,07,21,12,56,20.40
2016,07,21,12,57,20.50
2016,07,21,12,58,20.60
2016,07,21,12,59,20.70
2016,07,21,13,00,20.60
2016,07,21,13,01,20.60
2016,07,21,13,02,20.60
2016,07,21,13,03,20.70
2016,07,21,13,04,20.80
2016,07,21,13,05,20.90
2016,07,21,13,06,21.10
2016,07,21,13,07,21.10
2016,07,21,13,08,21.10
2016,07,21,13,09,21.20
2016,07,21,13,10,21.20
2016,07,21,13,11,21.30
2016,07,21,13,12,21.30
2016,07,21,13,13,21.30
2016,07,21,13,14,21.30
2016,07,21,13,15,21.30
2016,07,21,13,16,21.30
2016,07,21,13,17,21.20
2016,07,21,13,18,21.20
2016,07,21,13,19,21.10
2016,07,21,13,20,21.10
2016,07,21,13,21,21.10
2016,07,21,13,22,21.10
2016,07,21,13,23,21.10
2016,07,21,13,24,21.20
2016,07,21,13,25,21.30
2016,07,21,13,26,21.40
2016,07,21,13,27,21.50
2016,07,21,13,28,21.60
2016,07,21,13,29,21.70
2016,07,21,13,30,21.70
2016,07,21,13,31,21.60
2016,07,21,13,32,21.60
2016,07,21,13,33,21.60
2016,07,21,13,34,21.60
2016,07,21,13,35,21.50
2016,07,21,13,36,21.50
2016,07,21,13,37,21.40
2016,07,21,13,38,21.40
2016,07,21,13,39,21.40
2016,07,21,13,40,21.40
2016,07,21,13,41,21.40
2016,07,21,13,42,21.40
2016,07,21,13,43,21.40
2016,07,21,13,44,21.40
2016,07,21,13,45,21.40
2016,07,21,13,46,21.40
2016,07,21,13,47,21.40
2016,07,21,13,48,21.30
2016,07,21,13,49,21.20
2016,07,21,13,50,21.20
2016,07,21,13,51,21.20
2016,07,21,13,52,21.20
2016,07,21,13,53,21.30
2016,07,21,13,54,21.30
2016,07,21,13,55,21.40
2016,07,21,13,56,21.50
2016,07,21,13,57,21.60
2016,07,21,13,58,21.70
2016,07,21,13,59,21.70
2016,07,21,14,00,21.80
2016,07,21,14,01,21.80
2016,07,21,14,02,21.80
2016,07,21,14,03,21.90
2016,07,21,14,04,22.00
2016,07,21,14,05,22.00
2016,07,21,14,06,22.10
2016,07,21,14,07,22.20
2016,07,21,14,08,22.20
2016,07,21,14,09,22.20
2016,07,21,14,10,22.30
2016,07,21,14,11,22.30
2016,07,21,14,12,22.30
2016,07,21,14,13,22.30
2016,07,21,14,14,22.40
2016,07,21,14,15,22.40
2016,07,21,14,16,22.50
2016,07,21,14,17,22.50
2016,07,21,14,18,22.60
2016,07,21,14,19,22.60
2016,07,21,14,20,22.60
2016,07,21,14,21,22.70
2016,07,21,14,22,22.80
2016,07,21,14,23,22.90
2016,07,21,14,24,23.00
2016,07,21,14,25,23.10
2016,07,21,14,26,23.20
2016,07,21,14,27,23.40
2016,07,21,14,28,23.60
2016,07,21,14,29,23.70
2016,07,21,14,30,23.90
2016,07,21,14,31,24.00
2016,07,21,14,32,24.00
2016,07,21,14,33,24.00
2016,07,21,14,34,24.00
2016,07,21,14,35,23.90
2016,07,21,14,36,23.90
2016,07,21,14,37,23.80
2016,07,21,14,38,23.80
2016,07,21,14,39,23.70
2016,07,21,14,40,23.60
2016,07,21,14,41,23.50
2016,07,21,14,42,23.40
2016,07,21,14,43,23.30
2016,07,21,14,44,23.20
2016,07,21,14,45,23.10
2016,07,21,14,46,23.10
2016,07,21,14,47,23.10
2016,07,21,14,48,23.20
2016,07,21,14,49,23.30
2016,07,21,14,50,23.40
2016,07,21,14,51,23.50
2016,07,21,14,52,23.60
2016,07,21,14,53,23.70
2016,07,21,14,54,23.80
2016,07,21,14,55,23.90
2016,07,21,14,56,23.90
2016,07,21,14,57,24.00
2016,07,21,14,58,23.90
2016,07,21,14,59,23.90
2016,07,21,15,00,23.90
2016,07,21,15,01,23.80
2016,07,21,15,02,23.80
2016,07,21,15,03,23.70
2016,07,21,15,04,23.70
2016,07,21,15,05,23.70
2016,07,21,15,06,23.70
2016,07,21,15,07,23.70
2016,07,21,15,08,23.80
2016,07,21,15,09,23.80
2016,07,21,15,10,23.80
2016,07,21,15,11,23.80
2016,07,21,15,12,23.90
2016,07,21,15,13,24.00
2016,07,21,15,14,24.00
2016,07,21,15,15,24.00
2016,07,21,15,16,23.90
2016,07,21,15,17,23.90
2016,07,21,15,18,23.80
2016,07,21,15,19,23.80
2016,07,21,15,20,23.80
2016,07,21,15,21,23.80
2016,07,21,15,22,23.80
2016,07,21,15,23,23.80
2016,07,21,15,24,23.90
2016,07,21,15,25,23.90
2016,07,21,15,26,24.00
2016,07,21,15,27,24.00
2016,07,21,15,28,24.00
2016,07,21,15,29,24.00
2016,07,21,15,30,24.10
2016,07,21,15,31,24.10
2016,07,21,15,32,24.10
2016,07,21,15,33,24.20
2016,07,21,15,34,24.20
2016,07,21,15,35,24.30
2016,07,21,15,36,24.30
2016,07,21,15,37,24.30
2016,07,21,15,38,24.40
2016,07,21,15,39,24.50
2016,07,21,15,40,24.60
2016,07,21,15,41,24.60
2016,07,21,15,42,24.70
2016,07,21,15,43,24.80
2016,07,21,15,44,24.80
2016,07,21,15,45,24.80
2016,07,21,15,46,24.80
2016,07,21,15,47,24.80
2016,07,21,15,48,24.80
2016,07,21,15,49,24.80
2016,07,21,15,50,24.90
2016,07,21,15,51,25.00
2016,07,21,15,52,25.10
2016,07,21,15,53,25.20
2016,07,21,15,54,25.20
2016,07,21,15,55,25.30
2016,07,21,15,56,25.30
2016,07,21,15,57,25.40
2016,07,21,15,58,25.40
2016,07,21,15,59,25.40
2016,07,21,16,00,25.40
2016,07,21,16,01,25.50
2016,07,21,16,02,25.50
2016,07,21,16,03,25.50
2016,07,21,16,04,25.40
2016,07,21,16,05,25.40
2016,07,21,16,06,25.40
2016,07,21,16,07,25.30
2016,07,21,16,08,25.30
2016,07,21,16,09,25.30
2016,07,21,16,10,25.20
2016,07,21,16,11,25.20
2016,07,21,16,12,25.10
2016,07,21,16,13,25.10
2016,07,21,16,14,25.10
2016,07,21,16,15,25.10
2016,07,21,16,16,25.10
2016,07,21,16,17,25.10
2016,07,21,16,18,25.10
2016,07,21,16,19,25.20
2016,07,21,16,20,25.20
2016,07,21,16,21,25.20
2016,07,21,16,22,25.20
2016,07,21,16,23,25.20
2016,07,21,16,24,25.20
2016,07,21,16,25,25.20
2016,07,21,16,26,25.20
2016,07,21,16,27,25.20
2016,07,21,16,28,25.20
2016,07,21,16,29,25.20
2016,07,21,16,30,25.20
2016,07,21,16,31,25.30
2016,07,21,16,32,25.30
2016,07,21,16,33,25.30
2016,07,21,16,34,25.30
2016,07,21,16,35,25.30
2016,07,21,16,36,25.40
2016,07,21,16,37,25.40
2016,07,21,16,38,25.50
2016,07,21,16,39,25.50
2016,07,21,16,40,25.60
2016,07,21,16,41,25.60
2016,07,21,16,42,25.70
2016,07,21,16,43,25.70
2016,07,21,16,44,25.80
2016,07,21,16,45,25.80
2016,07,21,16,46,25.80
2016,07,21,16,47,25.90
2016,07,21,16,48,25.90
2016,07,21,16,49,25.90
2016,07,21,16,50,26.00
2016,07,21,16,51,26.10
2016,07,21,16,52,26.10
2016,07,21,16,53,26.10
2016,07,21,16,54,26.20
2016,07,21,16,55,26.20
2016,07,21,16,56,26.20
2016,07,21,16,57,26.20
2016,07,21,16,58,26.30
2016,07,21,16,59,26.30
2016,07,21,17,00,26.30
2016,07,21,17,01,26.30
2016,07,21,17,02,26.40
2016,07,21,17,03,26.40
2016,07,21,17,04,26.50
2016,07,21,17,05,26.50
2016,07,21,17,06,26.40
2016,07,21,17,07,26.50
2016,07,21,17,08,26.50
2016,07,21,17,09,26.50
2016,07,21,17,10,26.50
2016,07,21,17,11,26.50
2016,07,21,17,12,26.60
2016,07,21,17,13,26.60
2016,07,21,17,14,26.60
2016,07,21,17,15,26.60
2016,07,21,17,16,26.70
2016,07,21,17,17,26.80
2016,07,21,17,18,26.80
2016,07,21,17,19,26.80
2016,07,21,17,20,26.70
2016,07,21,17,21,26.60
2016,07,21,17,22,26.50
2016,07,21,17,23,26.30
2016,07,21,17,24,26.20
2016,07,21,17,25,26.10
2016,07,21,17,26,26.00
2016,07,21,17,27,25.90
2016,07,21,17,28,25.80
2016,07,21,17,29,25.80
2016,07,21,17,30,25.80
2016,07,21,17,31,25.70
2016,07,21,17,32,25.70
2016,07,21,17,33,25.60
2016,07,21,17,34,25.60
2016,07,21,17,35,25.50
2016,07,21,17,36,25.50
2016,07,21,17,37,25.40
2016,07,21,17,38,25.40
2016,07,21,17,39,25.40
2016,07,21,17,40,25.30
2016,07,21,17,41,25.30
2016,07,21,17,42,25.30
2016,07,21,17,43,25.30
2016,07,21,17,44,25.20
2016,07,21,17,45,25.20
2016,07,21,17,46,25.20
2016,07,21,17,47,25.20
2016,07,21,17,48,25.20
2016,07,21,17,49,25.20
2016,07,21,17,50,25.20
2016,07,21,17,51,25.30
2016,07,21,17,52,25.30
2016,07,21,17,53,25.40
2016,07,21,17,54,25.50
2016,07,21,17,55,25.50
2016,07,21,17,56,25.60
2016,07,21,17,57,25.60
2016,07,21,17,58,25.60
2016,07,21,17,59,25.50
2016,07,21,18,00,25.50
2016,07,21,18,01,25.50
2016,07,21,18,02,25.40
2016,07,21,18,03,25.40
2016,07,21,18,04,25.40
2016,07,21,18,05,25.40
2016,07,21,18,06,25.30
2016,07,21,18,07,25.30
2016,07,21,18,08,25.20
2016,07,21,18,09,25.20
2016,07,21,18,10,25.20
2016,07,21,18,11,25.20
2016,07,21,18,12,25.20
2016,07,21,18,13,25.20
2016,07,21,18,14,25.20
2016,07,21,18,15,25.20
2016,07,21,18,16,25.20
2016,07,21,18,17,25.20
2016,07,21,18,18,25.20
2016,07,21,18,19,25.20
2016,07,21,18,20,25.20
2016,07,21,18,21,25.20
2016,07,21,18,22,25.20
2016,07,21,18,23,25.20
2016,07,21,18,24,25.20
2016,07,21,18,25,25.20
2016,07,21,18,26,25.20
2016,07,21,18,27,25.20
2016,07,21,18,28,25.10
2016,07,21,18,29,25.10
2016,07,21,18,30,25.10
2016,07,21,18,31,25.10
2016,07,21,18,32,25.10
2016,07,21,18,33,25.10
2016,07,21,18,34,25.10
2016,07,21,18,35,25.10
2016,07,21,18,36,25.00
2016,07,21,18,37,25.00
2016,07,21,18,38,24.90
2016,07,21,18,39,24.90
2016,07,21,18,40,24.80
2016,07,21,18,41,24.80
2016,07,21,18,42,24.80
2016,07,21,18,43,24.80
2016,07,21,18,44,24.80
2016,07,21,18,45,24.70
2016,07,21,18,46,24.70
2016,07,21,18,47,24.70
2016,07,21,18,48,24.70
2016,07,21,18,49,24.60
2016,07,21,18,50,24.60
2016,07,21,18,51,24.60
2016,07,21,18,52,24.50
2016,07,21,18,53,24.40
2016,07,21,18,54,24.40
2016,07,21,18,55,24.40
2016,07,21,18,56,24.40
2016,07,21,18,57,24.40
2016,07,21,18,58,24.30
2016,07,21,18,59,24.30
2016,07,21,19,00,24.30
2016,07,21,19,01,24.20
2016,07,21,19,02,24.20
2016,07,21,19,03,24.10
2016,07,21,19,04,24.00
2016,07,21,19,05,24.00
2016,07,21,19,06,23.90
2016,07,21,19,07,23.90
2016,07,21,19,08,23.90
2016,07,21,19,09,23.90
2016,07,21,19,10,23.90
2016,07,21,19,11,23.90
2016,07,21,19,12,23.90
2016,07,21,19,13,23.90
2016,07,21,19,14,23.90
2016,07,21,19,15,23.90
2016,07,21,19,16,23.80
2016,07,21,19,17,23.80
2016,07,21,19,18,23.80
2016,07,21,19,19,23.80
2016,07,21,19,20,23.80
2016,07,21,19,21,23.80
2016,07,21,19,22,23.80
2016,07,21,19,23,23.80
2016,07,21,19,24,23.80
2016,07,21,19,25,23.80
